Moses Lake, WA

7:05 AM PST on January 21, 2018 (GMT -0800)
Grant County International

Weather History for KMWH - February, 2014

Change the Weather History Date:

Monday, February 24, 2014

  Actual Average Record
Temperature  
Mean Temperature - 38 °F  
Max Temperature 32 °F 48 °F 65 °F (1986)
Min Temperature 32 °F 28 °F 10 °F (2011)
Degree Days  
Heating Degree Days 27  
Month to date heating degree days 804 725  
Since 1 July heating degree days 4488 4399  
Cooling Degree Days 0  
Month to date cooling degree days 0 0  
Year to date cooling degree days 0 0  
Moisture  
Dew Point 25 °F    
Average Humidity 75    
Maximum Humidity 75    
Minimum Humidity 75    
Precipitation  
Precipitation 0.05 in 0.03 in 0.35 in (2007)
Month to date precipitation 0.72 0.70  
Year to date precipitation 1.12 1.84  
Sea Level Pressure  
Sea Level Pressure 30.21 in    
Wind  
Wind Speed 10 mph (North)    
Max Wind Speed 16 mph    
Max Gust Speed -    
Visibility 5 miles    
Events      
T = Trace of Precipitation, MM = Missing Value Source: NWS Daily Summary

Daily Weather History Graph

Daily Weather History Graph

Search for Another Location

Airport or City:

Trip Planner

Search our weather history database for the weather conditions in past years. The results will help you decide how hot, cold, wet, or windy it might be!

Date:

Astronomy

Feb. 24, 2014 Rise Set
Actual Time 6:46 AM PST 5:35 PM PST
Civil Twilight 6:15 AM PST 6:06 PM PST
Nautical Twilight 5:40 AM PST 6:41 PM PST
Astronomical Twilight 5:04 AM PST 7:17 PM PST
Moon 3:02 AM PST (2/24) 12:29 PM PST (2/24)
Length of Visible Light 11h 50m
Length of Day
10h 48m
Waning Crescent, 27% of the Moon is Illuminated
Feb 24
Waning Crescent
Mar 1
New
Mar 8
First Quarter
Mar 16
Full
Mar 23
Last Quarter

Hourly Weather History & Observations

Time (PST) Temp. Windchill Dew Point Humidity Pressure Visibility Wind Dir Wind Speed Gust Speed Precip Events Conditions
12:52 AM 32.0 °F 24.8 °F 25.0 °F 75% 30.15 in 10.0 mi North 8.1 mph - N/A   Overcast
1:52 AM - - - N/A% 30.13 in 10.0 mi North 8.1 mph - N/A   Overcast
2:52 AM - - - N/A% 30.15 in 10.0 mi North 5.8 mph - N/A   Overcast
3:52 AM - - - N/A% 30.16 in 10.0 mi North 8.1 mph - N/A   Overcast
4:52 AM - - - N/A% 30.18 in 10.0 mi North 9.2 mph - N/A   Overcast
5:52 AM - - - N/A% 30.19 in 10.0 mi North 8.1 mph - N/A   Overcast
6:52 AM - - - N/A% 30.20 in 10.0 mi North 6.9 mph - N/A   Overcast
7:52 AM - - - N/A% 30.21 in 10.0 mi North 9.2 mph - N/A   Overcast
8:52 AM - - - N/A% 30.23 in 10.0 mi North 9.2 mph - N/A   Overcast
9:52 AM - - - N/A% 30.23 in 10.0 mi North 11.5 mph - N/A   Overcast
10:52 AM - - - N/A% 30.24 in 6.0 mi North 15.0 mph - 0.00 in   Unknown
11:52 AM - - - N/A% 30.24 in 10.0 mi NNE 16.1 mph - 0.00 in   Overcast
12:52 PM - - - N/A% 30.22 in 9.0 mi NNE 13.8 mph - 0.00 in   Overcast
1:16 PM - - - N/A% 30.22 in 2.0 mi NNE 12.7 mph - 0.00 in   Unknown
1:32 PM - - - N/A% 30.21 in 2.0 mi NNE 15.0 mph - 0.00 in   Unknown
1:39 PM - - - N/A% 30.21 in 1.5 mi NNE 12.7 mph - 0.00 in   Unknown
1:52 PM - - - N/A% 30.21 in 1.2 mi NNE 11.5 mph - 0.00 in   Unknown
2:18 PM - - - N/A% 30.21 in 1.2 mi NNE 9.2 mph - 0.01 in   Unknown
2:44 PM - - - N/A% 30.20 in 2.0 mi NNE 12.7 mph - 0.01 in   Unknown
2:52 PM - - - N/A% 30.20 in 2.0 mi NNE 10.4 mph - 0.01 in   Unknown
3:01 PM - - - N/A% 30.20 in 1.5 mi NNE 11.5 mph - 0.00 in   Unknown
3:30 PM - - - N/A% 30.21 in 0.8 mi NNE 11.5 mph - 0.02 in   Unknown
3:47 PM - - - N/A% 30.21 in 1.5 mi NNE 10.4 mph - 0.02 in   Unknown
3:52 PM - - - N/A% 30.21 in 2.0 mi NNE 10.4 mph - 0.02 in   Unknown
4:02 PM - - - N/A% 30.21 in 1.5 mi North 9.2 mph - 0.01 in   Unknown
4:44 PM - - - N/A% 30.21 in 2.0 mi North 10.4 mph - 0.01 in   Unknown
4:52 PM - - - N/A% 30.21 in 2.5 mi NNE 9.2 mph - 0.01 in   Unknown
5:05 PM - - - N/A% 30.21 in 3.0 mi NNE 9.2 mph - 0.00 in   Unknown
5:22 PM - - - N/A% 30.21 in 1.8 mi NNE 9.2 mph - 0.00 in   Unknown
5:31 PM - - - N/A% 30.21 in 1.0 mi North 8.1 mph - 0.01 in   Unknown
5:45 PM - - - N/A% 30.21 in 3.0 mi North 9.2 mph - 0.01 in   Unknown
5:52 PM - - - N/A% 30.21 in 4.0 mi North 9.2 mph - 0.01 in   Unknown
6:52 PM - - - N/A% 30.22 in 4.0 mi North 8.1 mph - 0.00 in   Unknown
6:59 PM - - - N/A% 30.23 in 4.0 mi NNW 6.9 mph - 0.00 in   Unknown
7:52 PM - - - N/A% 30.23 in 4.0 mi North 9.2 mph - 0.00 in   Unknown
8:52 PM - - - N/A% 30.24 in 2.5 mi North 10.4 mph - 0.00 in   Unknown
9:04 PM - - - N/A% 30.25 in 4.0 mi North 9.2 mph - 0.00 in   Unknown
9:52 PM - - - N/A% 30.26 in 7.0 mi North 8.1 mph - 0.00 in   Unknown
10:52 PM - - - N/A% 30.27 in 10.0 mi North 6.9 mph - 0.00 in   Overcast
11:52 PM - - - N/A% 30.28 in 10.0 mi North 6.9 mph - 0.00 in   Overcast